Overview Statistics Trail Chart Weather Telemetry Raw packets
 

This is the latest recevied weather packets stored in our database for station/object OK1TBM-13. If no packets are shown the sender has not sent any weather packets the latest 10 day(s).

<< 22 23 24 25 26 27 28 >>
Time Temp. Humidity Pressure Rain* Wind** Luminosity Snow
1788464708 20° C 66% 1017.3 hPa 0 mm - 0 W/m² -
1788463800 19.44° C 66% 1017.3 hPa 0 mm - 0 W/m² -
1788463200 20° C 65% 1016.9 hPa 0 mm - 0 W/m² -
1788462602 19.44° C 66% 1016.9 hPa 0 mm - 0 W/m² -
1788462308 19.44° C 67% 1016.9 hPa 0 mm - 0 W/m² -
1788462000 19.44° C 69% 1016.6 hPa 0 mm - 0 W/m² -
1788461102 17.78° C 78% 1016.6 hPa 0 mm - 0 W/m² -
1788460803 17.78° C 79% 1016.6 hPa 0 mm - 0 W/m² -
1788460502 17.78° C 78% 1016.6 hPa 0 mm - 0 W/m² -
1788460202 18.33° C 76% 1016.6 hPa 0 mm - 0 W/m² -
1788459902 18.33° C 76% 1016.6 hPa 0 mm - 0 W/m² -
1788459602 18.33° C 76% 1016.6 hPa 0 mm - 0 W/m² -
1788459302 18.89° C 75% 1016.6 hPa 0 mm - 0 W/m² -
1788459002 18.89° C 74% 1016.6 hPa 0 mm - 0 W/m² -
1788458702 18.89° C 74% 1016.6 hPa 0 mm - 0 W/m² -
1788458402 18.89° C 74% 1016.6 hPa 0 mm - 0 W/m² -
1788458102 18.89° C 73% 1016.6 hPa 0 mm - 0 W/m² -
1788457802 18.89° C 72% 1016.6 hPa 0 mm - 0 W/m² -
1788457501 18.89° C 71% 1016.6 hPa 0 mm - 0 W/m² -
1788457201 19.44° C 73% 1016.6 hPa 0 mm - 1 W/m² -
1788456901 19.44° C 72% 1016.6 hPa 0 mm - 2 W/m² -
1788456601 19.44° C 70% 1016.6 hPa 0 mm - 4 W/m² -
1788456302 20° C 66% 1016.6 hPa 0 mm - 7 W/m² -
1788456002 20.56° C 63% 1016.6 hPa 0 mm - 10 W/m² -
1788455102 21.11° C 60% 1016.6 hPa 0 mm - 23 W/m² -

* Rain latest hour (hover to see other rain measurements)
** Current wind speed in m/s (hover to see current wind gust speed)